Weather History for KLND - April, 2014

Change the Weather History Date:

Friday, April 18, 2014

  Actual Average Record
Temperature  
Mean Temperature 55 °F 44 °F  
Max Temperature 71 °F 57 °F 78 °F (1994)
Min Temperature 39 °F 32 °F 7 °F (1945)
Degree Days  
Heating Degree Days 10 21  
Month to date heating degree days 398 412  
Since 1 July heating degree days 7029 7031  
Cooling Degree Days 0 0  
Month to date cooling degree days 0 0  
Year to date cooling degree days 0 0  
Growing Degree Days 6 (Base 50)    
Moisture  
Dew Point 25 °F    
Average Humidity 36    
Maximum Humidity 55    
Minimum Humidity 17    
Precipitation  
Precipitation T in 0.07 in 1.17 in (1966)
Month to date precipitation 0.59 1.04  
Year to date precipitation 2.57 3.19  
Snow  
Snow 0.00 in 0.60 in - ()
Month to date snowfall 4.3 10.6  
Since 1 July snowfall 73.5 80.3  
Snow Depth 0.00 in    
Sea Level Pressure  
Sea Level Pressure 29.73 in    
Wind  
Wind Speed 14 mph (WSW)    
Max Wind Speed 46 mph    
Max Gust Speed 61 mph    
Visibility 10 miles    
Events Rain    
T = Trace of Precipitation, MM = Missing Value Source: NWS Daily Summary

Daily Weather History Graph

Daily Weather History Graph

Search for Another Location

Airport or City:

Trip Planner

Search our weather history database for the weather conditions in past years. The results will help you decide how hot, cold, wet, or windy it might be!

Date:

Astronomy

Apr. 18, 2014 Rise Set
Actual Time 6:28 AM MDT 8:00 PM MDT
Civil Twilight 5:58 AM MDT 8:30 PM MDT
Nautical Twilight 5:22 AM MDT 9:06 PM MDT
Astronomical Twilight 4:44 AM MDT 9:44 PM MDT
Moon 11:52 PM MDT (4/18) 8:50 AM MDT (4/18)
Length of Visible Light 14h 31m
Length of Day
13h 32m
Waning Gibbous, 86% of the Moon is Illuminated
Apr 18
Waning Gibbous
Apr 22
Last Quarter
Apr 29
New
May 6
First Quarter
May 14
Full

Hourly Weather History & Observations

Time (MDT) Temp. Windchill Dew Point Humidity Pressure Visibility Wind Dir Wind Speed Gust Speed Precip Events Conditions
12:53 AM 43.0 °F 39.5 °F 26.1 °F 51% 29.83 in 10.0 mi ESE 5.8 mph - N/A   Clear
1:53 AM 46.0 °F 43.9 °F 24.1 °F 42% 29.78 in 10.0 mi SE 4.6 mph - N/A   Clear
2:53 AM 46.0 °F 43.9 °F 23.0 °F 40% 29.74 in 10.0 mi Variable 4.6 mph - N/A   Clear
3:53 AM 42.1 °F 37.7 °F 26.1 °F 53% 29.75 in 10.0 mi NE 6.9 mph - N/A   Partly Cloudy
4:53 AM 43.0 °F 39.5 °F 26.1 °F 51% 29.72 in 10.0 mi Variable 5.8 mph - N/A   Clear
5:53 AM 43.0 °F 40.3 °F 25.0 °F 49% 29.70 in 10.0 mi Variable 4.6 mph - N/A   Clear
6:53 AM 41.0 °F 35.2 °F 26.1 °F 55% 29.72 in 10.0 mi NW 9.2 mph - N/A   Clear
7:53 AM 43.0 °F 41.3 °F 26.1 °F 51% 29.73 in 10.0 mi Variable 3.5 mph - N/A   Clear
8:53 AM 48.0 °F - 28.0 °F 46% 29.69 in 10.0 mi Calm Calm - N/A   Clear
9:53 AM 57.0 °F - 25.0 °F 29% 29.65 in 10.0 mi North - - N/A   Clear
10:53 AM 66.0 °F - 25.0 °F 21% 29.62 in 10.0 mi SW 24.2 mph 40.3 mph N/A   Clear
11:53 AM 69.1 °F - 26.1 °F 20% 29.61 in 10.0 mi SW 27.6 mph 48.3 mph N/A   Clear
12:53 PM 70.0 °F - 26.1 °F 19% 29.60 in 10.0 mi SW 32.2 mph 44.9 mph N/A   Clear
1:53 PM 70.0 °F - 25.0 °F 18% 29.61 in 10.0 mi SW 35.7 mph 46.0 mph N/A   Clear
2:53 PM 62.1 °F - 34.0 °F 35% 29.70 in 10.0 mi West 32.2 mph 48.3 mph N/A   Clear
3:32 PM 57.9 °F - 37.0 °F 46% 29.83 in 10.0 mi WSW 27.6 mph 38.0 mph N/A   Mostly Cloudy
4:53 PM 55.9 °F - 37.0 °F 49% 29.70 in 10.0 mi SW 25.3 mph 43.7 mph 0.00 in Rain Light Rain
5:53 PM 60.8 °F - 32.0 °F 34% 29.76 in 10.0 mi WSW 27.6 mph 51.8 mph N/A   Clear
6:25 PM 60.1 °F - 30.0 °F 32% 29.80 in 10.0 mi NNW 8.1 mph 34.5 mph N/A   Clear
6:53 PM 59.0 °F - 32.0 °F 36% 29.70 in 10.0 mi North - - N/A   Mostly Cloudy
7:53 PM 59.0 °F - 19.9 °F 22% 29.70 in 10.0 mi WNW 8.1 mph 47.2 mph N/A   Clear
8:53 PM 57.2 °F - 12.2 °F 17% 29.83 in 10.0 mi NNW 12.7 mph 29.9 mph N/A   Clear
9:53 PM 51.1 °F - 14.0 °F 23% 29.76 in 10.0 mi North 8.1 mph - N/A   Clear
10:32 PM 45.0 °F 41.8 °F 15.1 °F 30% 29.90 in 10.0 mi ESE 5.8 mph - N/A   Clear
10:53 PM 45.0 °F 40.6 °F 14.0 °F 29% 29.78 in 10.0 mi SSE 8.1 mph - N/A   Clear
11:53 PM 44.1 °F 39.5 °F 14.0 °F 30% 29.80 in 10.0 mi SE 8.1 mph - N/A   Clear